Flag for U.S.A. Weather past 2 weeks in Aliso Viejo, California, U.S.A.

Now
68 °F

Passing clouds.


Feels Like: 68 °F
Forecast: 61 / 81 °F
Wind: No wind

Location: John Wayne Airport-Orange County Airport

Current Time: Oct 1, 2014 at 5:28:37 AM

Latest Report: Oct 1, 2014 at 4:53 AM


Visibility: 10 mi

Pressure: 29.77 "Hg

Humidity: 78%

Dew point: 61 °F

Location of Aliso ViejoLocation

Historic Weather in Aliso Viejo — Graph

°F

Aliso Viejo temperature yesterday

Maximum temperature yesterday: 85 °F (at 1:53 PM)
Minimum temperature yesterday: 66 °F (at 6:53 AM)
Average temperature yesterday: 74 °F

Past Weeks' High & Low Weather Summary

 TemperatureHumidityPressure
High99 °F (Sep 16, 4:53 PM)88% (Sep 23, 6:00 AM)29.99 "Hg (Sep 23, 6:00 AM)
Low65 °F (Sep 29, 6:53 AM)24% (Sep 16, 3:53 PM)29.67 "Hg (Sep 16, 5:53 PM)
Average76 °F60%29.86 "Hg
* Reported Sep 16 3:53 AM — Oct 1 3:53 AM, Aliso Viejo, Weather by CustomWeather, © 2014

Note: Actual official high and low records may vary slightly from our data, if they occured in-between our weather recording intervals... More about our weather records

Advertising

Aliso Viejo weather history for previous 24 hours

 ConditionsComfort  
Time TempWeatherWind HumidityBarometerVisibility
3:53 AM
Oct 1
69 °FClear.No wind76%29.75 "Hg10 mi
2:53 AM69 °FClear.No wind76%29.76 "Hg10 mi
1:53 AM70 °FClear.3 mph76%29.76 "Hg10 mi
12:53 AM70 °FClear.No wind76%29.77 "Hg10 mi
11:53 PM
Sep 30
71 °FClear.6 mph78%29.77 "Hg10 mi
10:53 PM71 °FPassing clouds.6 mph78%29.77 "Hg9 mi
9:53 PM72 °FPassing clouds.5 mph78%29.77 "Hg8 mi
8:53 PM73 °FPassing clouds.6 mph74%29.77 "Hg10 mi
7:53 PM74 °FPassing clouds.3 mph67%29.76 "Hg10 mi
6:53 PM76 °FSunny.5 mph60%29.75 "Hg10 mi
5:53 PM78 °FSunny.7 mph58%29.75 "Hg10 mi
4:53 PM81 °FSunny.10 mph53%29.75 "Hg10 mi
3:53 PM83 °FSunny.7 mph44%29.76 "Hg10 mi
2:53 PM84 °FSunny.10 mph41%29.76 "Hg10 mi
1:53 PM85 °FSunny.6 mph37%29.79 "Hg10 mi
12:53 PM84 °FSunny.7 mph38%29.82 "Hg10 mi
11:53 AM82 °FSunny.5 mph48%29.84 "Hg10 mi
10:53 AM79 °FSunny.3 mph50%29.85 "Hg10 mi
9:53 AM76 °FSunny.No wind56%29.87 "Hg10 mi
8:53 AM73 °FSunny.No wind59%29.86 "Hg10 mi
7:53 AM68 °FSunny.No wind68%29.85 "Hg10 mi
6:53 AM66 °FClear.3 mph70%29.85 "Hg10 mi
5:53 AM67 °FClear.No wind71%29.84 "Hg10 mi
Weather by CustomWeather, © 2014

See weather overviewHow to use our weather pages